SL-16 DEB

Satellite information

Favourite Embed

Satellite Type and Status

DEBRISIN ORBIT

Key statistics

Satellite SL-16 DEB at a glance.

Uptime

11881

Days in orbit

Revolutions

≈ 14.2

Per day

Orbit

LEO

Low Earth Orbit

Inclination

71.0

Latest

Satellite identification and parameters

Extended collection of information and parameters for SL-16 DEB.

Object identification

Identified? True

Debris? True

Object name: SL-16 DEB

International designator: 1992-093LV

Object number (NORAD): 39867

Object ID (CCSDS): 39867

Country: COMMONWEALTH OF INDEPENDENT STATES (CIS)

Current information (Y/N): Y

RCS size: SMALL

Orbital parameters

Period: 101.468 minutes

Inclination: 70.9648 deg

SMA: 7206.32 km

Apoapsis: 927.379 km

Periapsis: 728.992 km

RAAN: 165.1457 deg

Eccentricy: 0.0137648

Argument of periapsis: 156.7321 deg

Mean anomaly: 204.0117 deg

Mean motion: 14.1916346 rev/day

Mean motion (dot): 0.00003544 rev/day2

B* drag term: 0.0015595 1/REarth

Two-line elements (TLE)

Creation date: July 4, 2025, 3:20 a.m.

Reference frame: TEME

Reference center: EARTH

Epoch: July 3, 2025, 4:27 p.m. UTC

TLE line 0: 0 SL-16 DEB

TLE line 1: 1 39867U 92093LV 25184.68550564 .00003544 00000-0 15595-2 0 9998

TLE line 2: 2 39867 70.9648 165.1457 0137648 156.7321 204.0117 14.19163460547671

Live tracking on map

Real-time ground track for satellite SL-16 DEB.

In-orbit conjunctions

A list of the most updated potential collisions computed for object SL-16 DEB.

Target Orbit TCA Probability of collision Miss distance Type
IRIDIUM 38 LEO 2025-03-23 23:42:02 0.0001846849 261.0 (m) PAYLOAD

Associated space launch

Second generation ELING satellite

SL-16 DEB was lifted into orbit during the mission ‘Zenit-2 | Tselina-2 12’, on board a Zenit-2 space rocket.

The launch took place on Dec. 25, 1992, 5:56 a.m. from 45/1.

For more information about the launch, click the button.

Launch to space Zenit-2 | Tselina-2 12
Zenit-2 | Tselina-2 12

Agency: N/A

Status: Launch Successful

Launch date: Dec. 25, 1992, 5:56 a.m. UTC

Rocket: Zenit-2

Launch pad: 45/1

Location: Baikonur Cosmodrome, Republic of Kazakhstan

...

Latest news about this satellite

There are no fresh news available about this satellite. Check back as we update our databases every day.


Newsletter sign-up

Weekly statistics, charts and insights to help you stay on top of the space industry.